Flag for Cote d'Ivoire (Ivory Coast) Weather past 2 weeks in Abidjan, Cote d'Ivoire (Ivory Coast)

Now
73 °F

Mostly cloudy.


Feels Like: 68 °F
Forecast: 75 / 83 °F
Wind: 5 mph from West

Location: Abidjan Airport

Current Time: Sep 20, 2014 at 4:13:22 AM

Latest Report: Sep 20, 2014 at 3:30 AM


Visibility: N/A

Pressure: 29.89 "Hg

Humidity: 100%

Dew point: 73 °F

Location of AbidjanLocation

Historic Weather in Abidjan — Graph

°F

Abidjan temperature yesterday

Maximum temperature yesterday: 81 °F (at 2:00 PM)
Minimum temperature yesterday: 75 °F (at 1:30 AM)
Average temperature yesterday: 77 °F

Past Weeks' High & Low Weather Summary

 TemperatureHumidityPressure
High82 °F (Sep 6, 12:00 PM)100% (Sep 5, 6:00 PM)30.01 "Hg (Sep 5, 6:00 PM)
Low70 °F (Sep 20, 2:00 AM)70% (Sep 8, 2:00 PM)29.80 "Hg (Sep 12, 5:00 PM)
Average77 °F91%29.90 "Hg
* Reported Sep 5 3:00 AM — Sep 20 3:00 AM, Abidjan, Weather by CustomWeather, © 2014

Note: Actual official high and low records may vary slightly from our data, if they occured in-between our weather recording intervals... More about our weather records

Advertising

Abidjan weather history for previous 24 hours

 ConditionsComfort  
Time TempWeatherWind HumidityBarometerVisibility
3:00 AM
Sep 20
73 °FOvercast.5 mph100%29.89 "Hg4 mi
2:30 AM73 °FFog.3 mph100%29.89 "Hg2 mi
2:00 AM70 °FRain. Overcast.5 mphN/AN/A1 mi
1:00 AM73 °FPassing clouds.9 mph100%29.89 "Hg5 mi
12:30 AM73 °FPassing clouds.8 mph100%29.89 "HgN/A
12:00 AM75 °FPassing clouds.7 mph94%29.92 "HgN/A
11:30 PM
Sep 19
75 °FPassing clouds.8 mph94%29.92 "HgN/A
11:00 PM75 °FPassing clouds.6 mph94%29.95 "HgN/A
10:30 PM75 °FPassing clouds.7 mph94%29.95 "HgN/A
10:00 PM75 °FPassing clouds.5 mph94%29.95 "HgN/A
9:30 PM75 °FPassing clouds.6 mph94%29.92 "HgN/A
9:00 PM75 °FPassing clouds.5 mph94%29.92 "HgN/A
8:30 PM75 °FPassing clouds.5 mph94%29.92 "HgN/A
8:00 PM75 °FPassing clouds.3 mph94%29.92 "HgN/A
7:30 PM75 °FPassing clouds.5 mph94%29.89 "Hg4 mi
7:00 PM75 °FPassing clouds.7 mph94%29.89 "Hg4 mi
6:30 PM75 °FPassing clouds.6 mph94%29.86 "Hg4 mi
6:00 PM77 °FScattered clouds.8 mph94%29.86 "Hg5 mi
5:30 PM79 °FScattered clouds.9 mph89%29.86 "Hg5 mi
5:00 PM79 °FScattered clouds.8 mph89%29.86 "Hg5 mi
4:30 PM81 °FScattered clouds.10 mph84%29.83 "Hg5 mi
4:00 PM81 °FScattered clouds.9 mph79%29.83 "Hg5 mi
3:30 PM81 °FScattered clouds.10 mph79%29.86 "Hg5 mi
3:00 PM81 °FScattered clouds.12 mph79%29.86 "Hg5 mi
2:30 PM81 °FBroken clouds.9 mph84%29.86 "Hg5 mi
2:00 PM81 °FBroken clouds.7 mph84%29.89 "Hg4 mi
1:30 PM79 °FBroken clouds.9 mph89%29.89 "Hg4 mi
1:00 PM79 °FBroken clouds.6 mph89%29.89 "Hg4 mi
12:30 PM79 °FBroken clouds.7 mph89%29.92 "Hg4 mi
12:00 PM79 °FBroken clouds.6 mph89%29.95 "Hg5 mi
11:30 AM79 °FPartly sunny.5 mph89%29.95 "Hg5 mi
11:00 AM77 °FMostly cloudy.6 mph94%29.95 "Hg4 mi
10:30 AM77 °FMostly cloudy.8 mph94%29.95 "Hg4 mi
10:04 AM75 °FLight rain. Mostly cloudy.8 mph100%29.95 "Hg3 mi
10:00 AM75 °FRain. Mostly cloudy.9 mph94%29.98 "Hg2 mi
9:30 AM77 °FMostly cloudy.9 mph89%29.95 "Hg5 mi
9:00 AM75 °FMostly cloudy.8 mph100%29.95 "Hg4 mi
8:30 AM75 °FMostly cloudy.6 mph100%29.95 "Hg4 mi
8:00 AM75 °FFog.5 mph100%29.92 "Hg2 mi
7:30 AM75 °FDrizzle. Mostly cloudy.5 mph100%29.92 "Hg2 mi
7:00 AM75 °FDrizzle. Mostly cloudy.5 mph100%29.89 "Hg2 mi
6:30 AM75 °FFog.5 mph100%29.89 "Hg2 mi
6:00 AM75 °FFog.6 mph100%29.89 "Hg2 mi
5:30 AM75 °FPartly cloudy.6 mph100%29.86 "Hg4 mi
5:00 AM75 °FPartly cloudy.5 mph100%29.86 "Hg4 mi
4:30 AM75 °FPartly cloudy.7 mph100%29.86 "Hg4 mi
4:00 AM75 °FPartly cloudy.6 mph100%29.86 "Hg4 mi
Weather by CustomWeather, © 2014

See weather overviewHow to use our weather pages